TimeEST,TemperatureF,Dew PointF,Humidity,Sea Level PressureIn,VisibilityMPH,Wind Direction,Wind SpeedMPH,Gust SpeedMPH,PrecipitationIn,Events,Conditions,WindDirDegrees,DateUTC
12:53 AM,75.9,70.0,82,30.04,10.0,SE,10.4,-,N/A,,Partly Cloudy,140,2013-01-17 05:53:00
1:53 AM,75.9,70.0,82,30.04,10.0,SSE,8.1,-,N/A,,Partly Cloudy,150,2013-01-17 06:53:00
2:53 AM,75.9,70.0,82,30.03,10.0,SE,6.9,-,N/A,,Overcast,130,2013-01-17 07:53:00
3:53 AM,72.0,66.9,84,30.04,2.5,South,23.0,29.9,0.08,Rain,Heavy Rain,190,2013-01-17 08:53:00
4:06 AM,73.4,68.0,83,30.04,7.0,South,12.7,-,0.15,Rain,Light Rain,170,2013-01-17 09:06:00
4:53 AM,73.9,68.0,82,30.03,10.0,South,4.6,-,0.16,,Overcast,180,2013-01-17 09:53:00
5:53 AM,73.0,68.0,84,30.04,10.0,SE,9.2,-,N/A,,Overcast,140,2013-01-17 10:53:00
6:53 AM,72.0,69.1,91,30.05,10.0,East,3.5,-,N/A,,Overcast,100,2013-01-17 11:53:00
7:53 AM,72.0,69.1,91,30.07,10.0,East,3.5,-,N/A,,Overcast,90,2013-01-17 12:53:00
8:53 AM,75.9,72.0,87,30.09,10.0,Calm,Calm,-,N/A,,Overcast,0,2013-01-17 13:53:00
9:53 AM,77.0,70.0,79,30.10,10.0,Calm,Calm,-,N/A,,Overcast,0,2013-01-17 14:53:00
10:05 AM,75.2,69.8,83,30.11,10.0,SE,4.6,-,N/A,,Overcast,130,2013-01-17 15:05:00
10:53 AM,77.0,71.1,82,30.10,10.0,ESE,5.8,-,N/A,,Mostly Cloudy,120,2013-01-17 15:53:00
11:53 AM,78.1,71.1,79,30.08,10.0,SSW,5.8,-,N/A,,Clear,210,2013-01-17 16:53:00
12:53 PM,78.1,70.0,76,30.05,10.0,SSW,5.8,-,N/A,,Clear,210,2013-01-17 17:53:00
1:53 PM,78.1,71.1,79,30.04,10.0,SW,9.2,-,N/A,,Partly Cloudy,230,2013-01-17 18:53:00
2:21 PM,78.8,71.6,78,30.03,10.0,SW,9.2,-,N/A,,Mostly Cloudy,230,2013-01-17 19:21:00
2:53 PM,79.0,71.1,77,30.02,10.0,SW,10.4,-,N/A,,Mostly Cloudy,230,2013-01-17 19:53:00
3:16 PM,78.8,71.6,78,30.02,10.0,SW,9.2,-,N/A,,Scattered Clouds,230,2013-01-17 20:16:00
3:53 PM,78.1,69.1,74,30.03,10.0,WSW,10.4,-,N/A,,Partly Cloudy,240,2013-01-17 20:53:00
4:53 PM,75.0,69.1,82,30.05,7.0,NW,20.7,27.6,0.00,Rain,Light Rain,320,2013-01-17 21:53:00
5:07 PM,73.4,69.8,88,30.06,4.0,NNW,17.3,27.6,0.05,Rain,Light Rain,340,2013-01-17 22:07:00
5:19 PM,73.4,69.8,88,30.06,10.0,NNW,19.6,27.6,0.05,,Overcast,330,2013-01-17 22:19:00
5:28 PM,71.6,68.0,88,30.07,10.0,NNW,20.7,27.6,0.05,,Overcast,330,2013-01-17 22:28:00
5:53 PM,72.0,68.0,87,30.07,9.0,NNW,18.4,27.6,0.05,Rain,Light Rain,340,2013-01-17 22:53:00
6:53 PM,70.0,66.0,87,30.10,10.0,NNW,20.7,32.2,0.00,,Overcast,340,2013-01-17 23:53:00
7:53 PM,68.0,63.0,84,30.12,10.0,NNW,19.6,29.9,N/A,,Overcast,330,2013-01-18 00:53:00
8:11 PM,68.0,62.6,83,30.12,10.0,NNW,20.7,31.1,N/A,,Overcast,340,2013-01-18 01:11:00
8:53 PM,68.0,62.1,81,30.13,10.0,NNW,19.6,31.1,N/A,,Overcast,340,2013-01-18 01:53:00
9:53 PM,68.0,60.1,76,30.14,10.0,NNW,18.4,26.5,N/A,,Overcast,340,2013-01-18 02:53:00
10:53 PM,68.0,59.0,73,30.15,10.0,NNW,13.8,23.0,N/A,,Overcast,340,2013-01-18 03:53:00
11:08 PM,68.0,57.2,68,30.15,10.0,NNW,13.8,24.2,N/A,,Overcast,330,2013-01-18 04:08:00
11:53 PM,68.0,57.9,70,30.15,10.0,NNW,16.1,23.0,N/A,,Overcast,340,2013-01-18 04:53:00